Lapse_Rate
2.5 2.4 2.2 2.2 2.0 2.0 1.9 1.8 1.9 1.7 1.8 1.6 1.1 0.9 1.2 0.6 -0.0 -0.8 0.5 3.6 1.7 2.4 3.2 4.6 5.2 5.2 5.5 6.1 5.9 5.4 6.5 6.5 6.5 6.5 6.5 7.0 6.5 6.9 7.0 7.3 7.1 7.4 7.7 7.6 7.1
3.1 3.0 2.5 2.4 2.1 1.9 1.8 1.8 1.8 1.8 1.7 1.9 1.9 1.6 1.3 0.8 -0.5 -0.3 2.1 2.5 3.1 3.4 5.1 6.1 6.0 5.8 6.4 6.4 6.4 6.8 6.5 6.5 6.5 6.5 6.5 6.8 6.8 7.0 6.9 7.0 7.0 7.5 6.4 6.1 6.5
3.5 3.4 3.4 3.3 2.5 1.8 1.8 1.8 1.6 1.9 2.1 2.2 2.0 1.9 1.9 1.4 3.3 5.6 4.2 2.6 2.9 3.4 5.2 6.2 6.3 6.8 7.0 6.8 7.1 6.9 6.5 6.5 6.7 7.0 7.1 6.8 6.8 7.3 6.8 6.5 7.1 7.0 7.3 6.6 6.0
3.9 3.7 3.5 3.5 3.3 2.8 2.6 2.2 1.9 2.1 2.2 2.3 2.2 2.4 2.4 1.7 6.5 4.9 4.0 2.6 3.1 3.1 4.9 5.8 6.6 6.8 6.7 6.5 7.1 6.5 6.8 6.8 6.9 7.0 6.9 6.5 7.3 6.7 7.1 7.0 7.6 7.3 6.4 5.6 5.8
4.0 3.7 3.7 3.4 3.5 2.7 2.7 2.2 1.9 2.3 2.4 2.4 2.3 2.5 2.6 5.4 5.7 4.1 3.9 3.2 3.4 3.9 5.8 5.3 6.1 6.6 6.5 6.6 6.8 6.5 6.5 7.0 7.1 6.9 7.0 7.1 6.8 6.7 6.9 7.1 6.8 6.2 5.1 5.3 5.6
4.1 3.7 3.6 3.4 3.3 3.2 2.8 2.3 2.6 2.7 3.1 2.8 2.5 2.9 3.7 6.6 5.5 3.4 3.6 3.1 4.2 4.3 5.3 5.7 6.3 6.2 6.9 6.7 6.6 6.9 6.8 6.8 7.0 6.9 7.0 6.6 6.7 6.9 6.5 6.3 5.9 6.0 6.2 6.0 5.4
4.1 4.0 3.4 3.3 2.8 3.0 2.7 2.8 2.9 3.2 3.6 3.3 3.3 3.3 4.1 3.7 4.0 2.8 2.7 3.8 4.2 4.8 5.7 5.7 6.6 7.1 6.9 6.5 7.0 6.9 6.5 6.5 6.6 6.8 6.6 7.0 6.5 6.5 6.6 6.1 6.3 6.1 6.1 5.9 5.2
4.9 4.4 3.9 3.6 3.0 2.7 2.5 2.3 2.8 3.7 4.7 4.0 3.7 4.8 5.1 2.9 2.6 2.2 3.2 4.6 5.0 5.5 6.0 6.5 6.9 7.0 6.9 6.7 6.9 6.5 6.5 6.5 6.5 6.5 6.6 6.7 6.5 6.5 6.4 7.1 7.0 6.9 6.3 5.4 5.6
4.8 5.2 4.9 3.7 2.8 2.4 2.6 1.7 4.2 4.8 5.6 4.3 4.9 5.8 6.2 4.6 3.8 4.6 4.3 5.3 5.8 5.4 5.5 7.7 7.2 7.1 6.8 6.5 6.5 6.5 6.5 6.5 6.5 6.6 6.5 6.5 6.5 6.5 7.0 7.2 7.0 7.0 6.7 6.3 5.8
5.4 5.9 4.7 3.8 2.8 2.9 2.5 2.8 5.1 5.4 5.6 5.2 7.2 6.5 4.5 5.9 5.9 5.7 3.6 5.5 6.9 5.7 6.6 7.1 7.0 6.5 6.5 6.5 6.5 6.5 6.5 6.5 6.5 6.5 6.5 6.5 6.5 6.5 7.1 7.1 6.9 7.2 7.1 6.3 6.7
6.7 5.8 3.7 3.8 3.0 2.7 2.6 4.2 5.5 6.0 6.8 4.9 5.4 5.3 5.1 5.9 5.1 6.1 4.5 5.5 7.3 6.7 6.5 6.9 6.5 6.5 6.5 6.5 6.5 6.5 6.5 6.5 6.5 6.5 6.5 6.5 6.5 6.5 6.8 7.0 6.9 7.1 7.2 7.4 6.3
6.4 5.6 5.1 3.4 2.6 2.6 3.3 5.7 6.6 6.6 6.7 5.2 5.1 5.9 5.4 5.2 6.1 6.0 6.0 6.8 6.5 6.5 6.5 6.5 6.5 6.5 6.5 6.5 6.5 6.5 6.5 6.5 6.5 6.5 6.5 6.5 6.5 6.5 6.5 6.6 6.9 7.0 7.1 7.3 7.3
6.4 5.2 3.5 3.6 2.6 2.5 3.1 4.8 5.2 6.4 6.3 6.7 5.4 4.7 6.7 6.5 7.1 6.1 6.7 6.1 6.5 6.5 6.5 6.5 6.5 6.5 6.5 6.5 6.5 6.5 6.5 6.5 6.5 6.5 6.5 6.5 6.5 6.5 6.5 6.8 7.1 7.3 7.4 7.5 7.5
5.6 4.7 3.2 2.9 3.1 3.5 4.3 5.2 6.1 6.6 6.5 6.5 6.7 6.0 7.1 6.7 6.7 7.9 6.6 6.6 6.5 6.5 6.5 6.5 6.5 6.5 6.5 6.5 6.5 6.5 6.5 6.5 6.5 6.5 6.5 6.5 6.5 6.5 6.5 6.5 6.5 7.0 7.3 7.4 7.5
4.7 3.4 2.6 4.2 2.4 4.4 5.7 5.5 5.6 6.5 6.5 6.5 6.6 7.1 7.2 7.0 6.7 7.1 6.4 6.2 6.5 6.5 6.5 6.5 6.5 6.5 6.5 6.5 6.5 6.5 6.5 6.5 6.5 6.5 6.5 6.5 6.5 6.5 6.5 6.5 6.5 6.5 7.2 7.5 7.7
4.2 3.2 2.5 3.3 4.2 4.7 5.8 7.7 6.9 6.5 6.5 6.5 6.7 6.5 6.5 6.7 6.7 7.3 7.2 6.9 6.3 6.5 6.5 6.5 6.8 6.5 6.5 6.5 6.5 6.5 6.5 6.5 6.5 6.5 6.5 6.5 6.5 6.5 6.5 6.5 6.5 6.6 7.2 7.5 7.7
3.3 2.9 3.6 3.1 4.0 5.3 7.4 7.7 6.5 6.5 6.5 6.5 6.5 6.5 6.5 6.5 6.5 6.5 6.5 6.5 6.5 6.5 6.5 6.5 6.5 6.5 6.6 6.5 6.5 6.5 6.5 6.5 6.5 6.5 6.5 6.5 6.5 6.5 6.5 6.5 6.5 6.5 7.1 7.5 7.7
2.4 3.2 3.9 4.6 4.8 6.3 5.8 6.5 6.5 6.5 6.5 6.5 6.5 6.5 6.5 6.5 6.5 6.5 6.5 6.5 6.5 6.5 6.5 6.5 6.5 6.5 6.5 6.5 6.5 6.5 6.5 6.5 6.5 6.5 6.5 6.5 6.5 6.5 6.5 6.8 7.1 7.3 7.4 7.6 7.6
3.2 3.6 5.2 4.9 5.5 7.1 6.4 6.5 6.5 6.5 6.5 6.5 6.5 6.5 6.5 6.5 6.5 6.5 6.5 6.5 6.5 6.5 6.5 6.5 6.5 6.5 6.5 6.5 6.5 6.5 6.5 6.5 6.5 6.5 6.5 6.5 6.5 6.5 6.5 6.5 6.6 6.8 7.1 7.3 7.6
3.1 4.1 6.1 5.3 5.2 6.8 6.6 6.5 6.5 6.5 6.5 6.5 6.5 6.5 6.5 6.5 6.5 6.5 6.5 6.5 6.5 6.5 6.5 6.5 6.5 6.5 6.5 6.6 6.5 6.5 6.5 6.5 6.5 6.5 6.5 6.5 6.5 6.5 6.5 6.5 6.5 6.5 6.9 7.2 7.6
4.3 6.1 5.3 5.4 5.8 6.6 6.5 6.5 6.5 6.8 6.8 6.5 6.5 6.5 6.5 6.5 6.5 6.5 6.5 6.5 6.5 6.5 6.5 6.5 6.5 6.5 6.5 6.5 6.5 6.5 6.5 6.5 6.5 6.5 6.5 6.5 6.5 6.5 6.5 6.5 6.5 6.5 7.1 7.3 7.6
5.1 6.5 6.1 6.1 6.5 6.8 6.5 6.5 6.7 6.5 6.9 6.5 6.5 6.5 6.5 6.5 6.5 6.5 6.5 6.5 6.6 6.6 6.5 6.5 6.5 6.5 6.5 6.5 6.5 6.5 6.5 6.5 6.5 6.5 6.5 6.5 6.5 6.5 6.5 6.5 6.7 6.8 7.2 7.7 7.8
6.0 6.1 6.3 6.2 6.5 6.5 6.5 6.5 6.6 6.5 6.5 6.5 6.5 6.5 6.5 6.5 6.5 6.5 6.5 6.7 6.6 6.5 6.5 6.5 6.5 6.5 6.5 6.5 6.5 6.5 6.5 6.5 6.5 6.5 6.5 6.5 6.5 6.5 6.5 6.5 6.9 6.9 7.4 7.6 7.7
6.1 6.5 6.5 6.9 6.8 6.5 6.5 6.5 6.5 6.7 6.5 6.6 6.5 6.5 6.5 6.5 6.5 6.5 6.5 6.5 6.5 6.6 6.9 6.6 6.5 6.5 6.5 6.5 6.5 6.5 6.5 6.5 6.5 6.5 6.5 6.5 6.5 6.5 6.5 6.5 6.6 7.0 7.3 7.3 7.4
5.1 6.6 6.6 6.5 6.6 6.5 6.5 6.5 6.5 6.5 6.6 6.7 6.5 6.5 6.5 6.5 6.5 6.5 6.5 6.5 6.5 6.8 6.6 6.5 6.5 6.5 6.5 6.5 6.5 6.5 6.5 6.5 6.5 6.5 6.5 6.5 6.5 6.5 6.5 6.5 6.7 7.2 7.3 7.2 7.3
4.9 6.1 6.0 6.5 6.6 6.5 6.5 6.5 6.5 6.5 6.5 6.5 6.5 6.5 6.5 6.5 6.5 6.5 6.5 6.5 6.5 6.5 6.5 6.5 6.5 6.5 6.5 6.5 6.5 6.5 6.5 6.5 6.5 6.5 6.5 6.5 6.5 6.5 6.8 7.1 7.0 7.1 7.1 7.0 7.1
4.5 4.5 5.1 6.6 6.5 6.5 6.5 6.5 6.5 6.5 6.6 6.7 6.5 6.5 6.5 6.5 6.6 6.5 6.2 6.3 6.5 6.5 6.5 6.5 6.5 6.5 6.5 6.5 6.5 6.5 6.5 6.5 6.5 6.5 6.5 6.5 6.5 6.5 6.5 6.5 6.9 7.0 7.1 7.1 7.3
Wind_Speed
18 16 14 13 10 9 7 7 7 8 11 14 15 17 21 20 20 2 5 5 3 2 7 5 3 5 3 4 3 3 4 7 8 8 5 2 1 2 1 6 3 2 5 12 11
19 18 16 14 10 9 7 7 6 8 10 13 18 19 19 20 4 7 9 4 5 7 4 7 6 6 3 4 4 5 4 10 6 7 8 4 4 5 6 9 10 13 7 10 9
21 19 17 15 11 10 8 6 4 7 10 13 16 18 21 18 6 3 3 10 8 2 2 2 5 5 4 3 7 6 8 6 5 11 7 6 7 4 9 12 12 15 16 12 11
22 21 18 16 13 11 9 6 3 6 8 11 15 18 21 3 7 2 5 11 10 6 3 3 3 5 5 7 5 5 7 7 4 8 6 10 15 12 12 16 15 16 13 11 12
25 23 21 19 17 13 10 7 4 5 6 9 11 13 6 3 9 4 6 11 9 7 8 6 5 4 4 4 4 7 6 7 10 9 10 10 14 16 10 14 13 13 11 11 13
26 25 24 22 18 14 10 6 4 5 7 8 7 9 2 7 1 6 4 6 6 5 6 6 6 6 3 4 5 2 6 7 6 9 6 8 10 6 11 9 8 7 11 10 8
28 27 25 23 19 15 9 5 3 6 9 8 7 2 4 17 1 5 5 3 4 7 5 5 3 4 4 2 3 5 7 6 9 8 7 4 9 10 16 10 7 7 8 10 10
30 27 25 24 20 14 8 4 4 6 11 9 5 3 8 5 6 7 3 4 5 7 2 2 2 2 2 4 2 3 2 5 1 3 2 7 9 8 3 4 14 14 11 9 11
32 28 25 24 22 16 11 4 6 9 11 6 3 3 10 8 5 8 12 8 8 5 2 2 5 4 3 2 3 0 8 5 6 3 1 4 4 4 12 14 11 13 13 11 11
32 28 28 26 21 17 11 5 5 3 2 5 4 4 6 4 3 2 6 6 4 9 3 4 3 5 4 7 8 4 5 4 5 3 9 15 16 16 16 11 14 13 13 13 11
29 27 27 28 25 21 11 3 2 2 5 10 5 5 3 5 3 4 5 8 4 4 8 5 7 13 18 12 9 6 7 13 11 12 5 12 14 14 15 10 14 13 10 7 6
26 26 30 30 29 22 9 4 3 0 8 17 19 16 11 2 4 6 10 7 6 9 6 4 13 13 8 11 9 8 10 11 9 12 5 12 18 17 16 10 10 5 3 5 7
28 28 29 29 28 12 6 6 3 4 1 9 9 10 9 15 11 9 13 7 7 10 11 11 4 10 9 7 8 10 10 8 10 9 7 8 11 4 3 4 9 7 5 7 10
25 31 36 33 10 7 3 8 9 3 3 8 6 8 7 9 10 19 13 8 5 15 8 9 11 7 6 7 9 11 11 14 13 4 5 5 8 7 4 6 4 5 6 7 10
33 37 40 23 13 7 4 9 8 1 2 1 4 2 8 14 1 9 5 3 11 8 7 7 6 9 14 14 10 8 7 11 10 7 3 6 6 2 3 3 3 2 4 8 9
35 40 35 9 4 7 11 12 4 2 6 3 5 6 8 8 3 5 12 3 3 5 3 3 1 4 5 4 7 1 3 3 1 3 6 12 9 5 4 3 0 1 6 9 12
40 39 17 9 9 18 13 7 5 5 5 5 5 8 7 7 3 3 11 9 6 6 4 1 1 1 1 5 3 1 4 3 3 4 4 2 8 10 2 3 1 5 7 9 11
37 26 10 3 18 15 10 3 4 5 6 3 2 8 4 4 1 2 8 7 4 3 3 6 3 1 3 2 2 2 3 4 5 4 1 4 7 1 8 7 9 7 6 11 14
32 7 4 4 16 11 6 3 7 6 3 2 3 4 1 3 4 4 3 3 2 4 4 4 3 1 4 3 1 2 2 2 1 1 4 6 4 3 4 7 8 9 12 14 14
6 4 4 9 6 5 3 4 5 2 2 2 4 1 4 1 3 3 3 1 4 1 1 5 3 2 2 1 7 2 2 2 1 4 6 5 6 4 2 8 10 11 11 12 14
6 4 3 8 3 2 3 5 3 1 2 2 3 3 5 3 3 2 3 2 2 3 2 2 1 2 3 1 2 2 1 1 1 3 3 5 4 4 6 6 8 9 10 12 14
3 3 6 6 4 2 4 4 4 3 3 1 3 6 4 6 6 4 3 2 2 3 4 2 3 2 1 5 3 4 4 3 3 3 3 4 6 8 5 7 7 7 9 10 12
3 3 3 3 3 3 5 3 2 1 3 2 4 3 2 4 4 4 4 3 3 3 6 5 2 3 2 1 1 3 4 4 3 2 7 6 4 5 6 6 7 6 8 9 11
4 4 2 1 1 7 7 7 7 2 2 4 3 2 3 3 2 5 4 2 2 2 6 3 3 4 4 3 3 2 4 5 4 4 8 14 18 16 14 2 5 5 7 8 9
1 2 4 7 4 5 4 6 6 4 3 3 3 2 3 3 3 3 3 2 4 3 3 2 5 5 5 5 4 9 11 13 15 15 12 15 19 15 12 1 5 4 6 7 9
3 4 2 8 4 7 4 4 6 4 2 2 6 4 3 3 2 4 5 2 3 2 2 0 3 2 4 9 10 15 16 17 18 20 19 23 25 16 5 7 7 5 6 6 9
1 1 3 6 5 4 4 4 6 7 5 4 8 4 6 3 2 2 2 3 3 5 4 4 5 3 3 1 8 13 8 8 9 11 14 16 16 7 7 8 6 5 4 6 9
Wind_Direction
236 236 238 244 250 254 273 297 312 325 330 328 326 325 322 323 317 360 254 248 230 198 160 138 106 116 104 115 115 141 204 225 233 197 249 230 3 308 332 288 313 282 305 297 312
238 239 242 244 238 244 253 277 301 322 327 328 324 322 321 323 302 282 246 214 90 147 156 164 149 139 113 139 164 202 216 218 209 217 247 279 276 309 292 298 294 298 275 277 305
236 235 238 239 231 229 240 258 287 315 322 327 323 323 320 323 292 231 32 196 214 249 68 143 133 137 163 155 183 183 238 210 223 232 246 264 268 270 277 279 272 287 293 305 303
233 230 229 230 228 229 236 241 256 303 320 323 324 325 321 301 297 173 101 153 171 155 131 111 117 153 187 200 193 227 232 225 226 233 235 251 278 265 259 262 262 275 280 290 295
231 226 224 223 222 218 222 225 238 289 307 313 325 327 340 296 248 176 110 139 155 158 176 160 169 162 203 212 180 234 252 241 241 257 257 264 251 261 263 255 262 272 288 278 295
230 224 219 218 217 211 209 212 230 281 297 303 323 324 292 267 293 87 126 150 184 184 185 163 194 199 217 231 209 213 228 258 256 247 241 239 255 204 263 258 255 269 279 289 289
231 224 216 211 205 199 199 208 249 290 291 296 301 266 248 245 59 306 325 205 189 188 164 197 188 190 159 250 276 275 284 279 238 237 246 221 247 232 244 285 274 274 276 286 285
235 223 212 205 196 181 181 194 266 283 289 295 272 212 253 255 280 276 201 257 220 212 172 165 153 203 210 302 324 283 240 273 277 184 266 188 268 253 136 350 312 300 296 287 281
231 218 205 194 178 169 169 166 268 290 282 256 256 215 261 297 256 253 189 203 197 216 231 141 156 191 170 201 284 266 265 243 287 236 241 239 284 243 300 309 292 288 294 290 299
243 216 193 181 170 158 136 102 306 289 261 133 253 262 253 244 230 156 178 187 169 163 117 182 166 179 152 191 236 213 232 243 253 271 286 291 278 264 270 276 277 278 283 293 307
233 203 175 172 157 140 121 114 170 106 238 202 204 252 265 289 268 217 160 154 168 147 184 199 202 205 206 197 222 247 261 270 267 266 294 275 275 269 265 260 261 269 282 319 333
221 200 184 163 149 145 135 191 133 138 264 228 247 247 259 344 298 240 146 164 172 190 153 170 236 216 208 200 210 228 251 266 276 272 208 281 286 275 257 249 247 287 19 32 359
216 186 161 146 135 135 152 180 208 81 343 283 215 234 225 202 221 234 179 167 176 186 192 212 213 191 183 182 207 236 238 252 264 303 278 295 279 243 217 190 110 90 70 38 13
189 166 144 133 116 131 185 202 220 298 350 259 214 254 189 150 236 210 196 162 183 200 184 235 231 191 175 206 210 253 216 236 255 273 279 0 296 247 238 126 98 83 46 24 7
159 149 144 150 133 158 138 165 134 5 239 125 165 144 165 186 233 207 165 109 181 171 166 218 179 185 220 233 212 236 207 214 229 233 269 246 261 97 187 347 149 87 29 16 8
155 147 134 117 108 120 128 107 97 149 238 293 158 173 160 231 286 117 180 49 142 138 245 219 223 167 182 188 184 199 201 170 143 217 249 229 212 299 184 154 217 90 33 13 1
150 148 143 144 145 153 145 125 96 216 356 174 184 177 183 175 251 131 160 163 164 171 192 302 122 77 68 149 159 161 147 222 219 199 259 182 210 253 329 113 44 55 24 6 359
138 128 117 80 125 133 112 120 165 198 243 214 172 143 165 119 305 92 142 167 58 112 140 180 196 321 6 77 160 181 194 212 237 213 153 217 246 226 82 98 102 76 26 6 359
117 91 91 111 131 148 120 171 195 210 249 219 129 147 129 118 133 95 76 111 81 32 184 168 184 328 49 9 324 148 151 43 294 304 264 226 256 141 74 41 48 28 21 7 353
113 88 133 131 110 166 110 187 210 197 279 236 173 329 142 112 125 120 133 23 117 100 21 191 155 340 306 118 30 73 142 144 116 239 246 249 243 221 11 358 9 9 16 357 349
77 102 210 135 151 153 170 197 224 32 210 292 125 117 99 72 47 83 84 93 91 68 98 128 7 156 250 130 140 55 166 158 220 200 251 282 240 80 59 24 2 7 6 357 354
104 91 189 168 139 192 167 152 340 21 354 274 92 66 65 35 13 50 98 99 137 139 110 45 100 184 273 336 221 159 165 138 178 210 240 281 261 92 87 75 49 15 4 3 359
81 99 183 226 159 142 152 160 214 267 32 34 58 67 97 125 168 152 109 26 129 112 156 169 160 147 118 201 106 148 141 122 109 202 231 238 249 150 105 67 64 12 11 2 357
125 136 74 105 272 166 146 190 159 162 113 77 99 148 124 130 15 134 119 66 36 100 99 102 178 228 214 124 111 188 207 205 186 226 255 239 279 260 294 311 62 13 20 5 349
102 180 164 183 216 185 179 162 136 129 72 52 74 72 138 129 114 114 105 104 41 96 61 137 206 211 249 270 225 250 251 245 242 243 245 261 255 271 289 274 85 40 25 11 355
137 138 99 162 145 168 208 152 136 110 82 91 125 93 92 111 81 159 129 165 171 139 141 61 157 171 249 244 253 268 263 253 255 260 261 259 264 267 119 119 83 46 31 11 9
119 301 128 150 145 139 183 142 139 125 45 66 128 107 88 93 88 116 169 182 163 174 162 161 161 165 235 201 302 280 252 219 230 259 258 249 250 150 139 101 83 59 26 27 25